Weather in Gribanovsky

Russia / Voronezh Oblast     51°27′23″N   41°58′47″E
temp.,
°C
wind,
m/s
gust,
m/s
humid.,
%
clouds,
%
prec.,
mm/h
press.,
hPa
HPBL,
m
25 june, sat
sat2500:00+16nne389291 0.0 1011191
03:00+14nne359456 0.0 101282
06:00+16nne3992100 0.0 1013265
09:00+18ne488292 0.0 1014439
12:00+23ne5761100 0.0 10141590
15:00+25ne575489 0.0 10141899
18:00+23ne486998 0.0 1014381
21:00+19nne41084100 0.1 1016200
26 june, sun
sun2600:00+16ne39908 0.0 1017163
03:00+15ne37900 0.0 1017132
06:00+17nne38850 0.0 1018220
09:00+23ne58660 0.0 1019695
12:00+25ne69540 0.0 10192109
15:00+26ne69560 0.0 10192026
18:00+23ne59670 0.0 1019806
21:00+18ne34840 0.0 102048
27 june, mon
mon2700:00+16ne37840 0.0 1021117
03:00+14ene34840 0.0 102264
06:00+15ene23810 0.0 1023110
09:00+21ene23610 0.0 1022482
12:00+24ne33490 0.0 1021953
15:00+25nne22470 0.0 10201074
18:00+26wnw12560 0.0 1019921
21:00+20w33690 0.0 101921
28 june, tue
tue2800:00+19wnw46735 0.0 101795
03:00+18wnw47875 0.0 1016124
06:00+20n37900 0.3 1016225
09:00+24nne68690 0.3 1016660
12:00+25nne78607 0.0 10171522
15:00+23nne776019 0.1 10181452
18:00+21nne68620 0.0 1018802
21:00+16ne410750 0.0 1019202
29 june, wed
wed2900:00+13ne49780 0.0 1020174
03:00+11ne39810 0.0 1021175
06:00+12ne48780 0.0 1022229
09:00+17ne67620 0.0 1022969
12:00+19ne56482 0.0 10221837
15:00+20ne46445 0.0 10222112
18:00+19nne475655 0.0 1021735
21:00+14nne37705 0.0 1022109